Weather History for Chillicothe, MO

Change the Weather History Date:

Thursday, January 10, 2013

  Actual Average (KIRK) Record (KIRK)
Temperature  
Mean Temperature 40 °F 26 °F  
Max Temperature 44 °F 35 °F 56 °F (2012)
Min Temperature 36 °F 17 °F -23 °F (1982)
Degree Days  
Heating Degree Days 26 39  
Month to date heating degree days 390  
Since 1 July heating degree days 2733  
Cooling Degree Days 0 0  
Month to date cooling degree days 0  
Year to date cooling degree days 0  
Moisture  
Dew Point 35 °F    
Average Humidity 83    
Maximum Humidity 100    
Minimum Humidity 55    
Precipitation  
Precipitation 0.19 in 0.03 in 0.73 in (1949)
Month to date precipitation 0.31  
Year to date precipitation 0.31  
Sea Level Pressure  
Sea Level Pressure 30.08 in    
Wind  
Wind Speed 6 mph (ESE)    
Max Wind Speed 10 mph    
Max Gust Speed 17 mph    
T = Trace of Precipitation, MM = Missing Value Source: NWS Daily Summary

Daily Weather History Graph

Daily Weather History Graph

Search for Another Location

Airport:

Trip Planner

Search our weather history database for the weather conditions in past years. The results will help you decide how hot, cold, wet, or windy it might be!

Date:

Astronomy

Jan. 10, 2013 Rise Set
Actual Time 7:35 AM CST 5:09 PM CST
Civil Twilight 7:05 AM CST 5:38 PM CST
Nautical Twilight 6:31 AM CST 6:12 PM CST
Astronomical Twilight 5:59 AM CST 6:45 PM CST
Moon 6:15 AM CST (1/10) 4:17 PM CST (1/10)
Length of Visible Light 10h 33m
Length of Day
9h 33m
Waning Crescent, 2% of the Moon is Illuminated
Jan 10
Waning Crescent
Jan 11
New
Jan 18
First Quarter
Jan 26
Full
Feb 3
Last Quarter

Hourly Weather History & Observations

Time (CST) Temp. Windchill Dew Point Humidity Pressure Visibility Wind Dir Wind Speed Gust Speed Precip Events Conditions
12:52 AM 36.0 °F 31.1 °F 27.0 °F 70% 30.41 in - ESE 5.8 mph - N/A   Unknown
1:52 AM 37.0 °F 33.3 °F 27.0 °F 67% 30.40 in - ESE 4.6 mph - N/A   Unknown
2:52 AM 37.9 °F 32.7 °F 27.0 °F 65% 30.38 in - East 6.9 mph - N/A   Unknown
3:52 AM 39.0 °F 34.0 °F 26.1 °F 60% 30.34 in - ESE 6.9 mph - N/A   Unknown
4:52 AM 39.0 °F 34.8 °F 26.1 °F 60% 30.32 in - East 5.8 mph - N/A   Unknown
5:52 AM 39.0 °F 34.0 °F 28.9 °F 67% 30.30 in - East 6.9 mph - 0.01 in   Unknown
6:52 AM 39.9 °F 36.7 °F 27.0 °F 60% 30.26 in - East 4.6 mph - N/A   Unknown
7:52 AM 41.0 °F 35.2 °F 27.0 °F 57% 30.24 in - ESE 9.2 mph - N/A   Unknown
8:52 AM 42.1 °F 36.6 °F 27.0 °F 55% 30.22 in - ESE 9.2 mph - N/A   Unknown
9:52 AM 39.0 °F 34.0 °F 34.0 °F 82% 30.19 in - SE 6.9 mph - N/A   Unknown
10:52 AM 37.9 °F 30.9 °F 36.0 °F 93% 30.13 in - ESE 10.4 mph - 0.03 in   Unknown
11:52 AM 39.0 °F 32.3 °F - N/A% 30.06 in - ESE 10.4 mph 17.3 mph 0.02 in   Unknown
12:52 PM 39.0 °F 32.8 °F 39.0 °F 100% 30.01 in - ESE 9.2 mph - 0.04 in   Unknown
2:52 PM 39.9 °F 34.5 °F 39.9 °F 100% 29.95 in - ESE 8.1 mph - 0.02 in   Unknown
3:52 PM 41.0 °F 37.1 °F 41.0 °F 100% 29.93 in - ESE 5.8 mph - N/A   Unknown
4:52 PM 41.0 °F 38.0 °F 41.0 °F 100% 29.92 in - ESE 4.6 mph - N/A   Unknown
5:52 PM 42.1 °F 39.2 °F 42.1 °F 100% 29.90 in - East 4.6 mph - 0.07 in   Unknown
6:52 PM 42.1 °F 38.4 °F 42.1 °F 100% 29.88 in - ESE 5.8 mph - N/A   Unknown
7:52 PM 43.0 °F 41.3 °F 43.0 °F 100% 29.85 in - SE 3.5 mph - N/A   Unknown
8:52 PM 43.0 °F 41.3 °F 43.0 °F 100% 29.83 in - SE 3.5 mph - N/A   Unknown
9:52 PM 43.0 °F 38.8 °F 43.0 °F 100% 29.79 in - SE 6.9 mph - N/A   Unknown
10:52 PM 43.0 °F - 43.0 °F 100% 29.77 in - Calm Calm - N/A   Unknown
11:52 PM 44.1 °F - 44.1 °F 100% 29.78 in - Calm Calm - N/A   Unknown